Location: Les Fl�chons
(43.7199°N, 4.8699°E)
Time: 19:59:14
(UTC+00:00)

Daily predictions for brighter satellites

Satellite Brightness Start Highest point End
(mag) Time Altitude Azimuth Time Altitude Azimuth Time Altitude Azimuth
ATLAS 2AS CENTAUR R/B 3.1 17:37:46 10° SSW 17:45:32 63° ESE 17:53:20 10° NE
Cosmos 1939 Rocket 2.9 17:46:48 10° SSE 17:50:56 78° ENE 17:55:05 10° N
Cosmos 1269 Rocket 4.4 17:46:37 10° N 17:51:41 43° ENE 17:56:43 10° SE
Cosmos 2082 Rocket 3.7 17:49:22 10° N 17:53:15 19° NE 17:57:08 10° E
Cosmos 1464 Rocket 4.0 17:52:05 10° S 17:58:14 88° E 18:04:30 10° N
Cosmos 1092 Rocket 4.5 17:52:56 10° N 17:58:41 38° ENE 18:04:27 10° SE
BREEZE-M DEB (TANK) 2.5 17:56:52 10° WNW 17:59:35 90° NNE 18:06:55 10° ESE
PSLV R/B 4.1 17:57:07 10° NNE 18:01:20 84° WNW 18:05:33 10° SSW
COSMOS 2455 4.0 17:57:01 10° SSE 18:01:22 21° ESE 18:05:45 10° ENE
Cosmos 1844 Rocket 3.6 17:56:54 10° SW 18:02:20 52° WNW 18:07:49 10° NNE
Okean-O 2.6 17:58:10 10° SSE 18:02:34 73° ENE 18:07:01 10° N
COSMO-SKYMED 1 2.8 17:58:43 10° N 18:03:04 77° WNW 18:07:24 10° SSW
Cosmos 2151 Rocket 3.7 17:59:44 10° S 18:04:14 89° WNW 18:08:47 10° N
CZ-2C R/B 3.5 17:59:04 10° SE 18:04:22 51° ENE 18:09:55 10° N
H-2A R/B 2.6 18:01:39 10° SE 18:06:17 38° ENE 18:11:05 10° N
Cosmos 1689 Rocket 3.6 18:04:06 10° N 18:06:55 40° WNW 18:09:42 10° SW
Cosmos 2285 Rocket 4.1 18:06:56 10° SSW 18:13:15 85° WNW 18:19:40 10° NNE
KORONAS-FOTON 3.8 18:10:50 10° N 18:14:46 70° E 18:18:38 10° SSE
Cosmos 1025 Rocket 4.0 18:13:14 10° NNW 18:17:32 53° W 18:21:48 10° S
ISS -2.1 18:16:09 10° NW 18:18:57 24° NNE 18:21:09 13° ENE
Cosmos 1805 3.2 18:15:47 10° S 18:19:39 68° E 18:23:33 10° NNE
TSX-5 4.5 18:16:27 10° SW 18:20:24 68° WNW 18:25:35 10° NNE
Cosmos 2278 Rocket 2.4 18:16:53 10° S 18:22:16 48° ESE 18:27:42 10° NE
Gbstr 26 Del rocket 4.3 18:16:14 10° SSW 18:22:30 56° SE 18:29:57 10° ENE
CSL-04 Rocket 3.7 18:24:31 10° SSE 18:29:58 71° ENE 18:35:30 10° N
HJ-1C 3.4 18:26:52 10° SSE 18:30:05 54° ENE 18:33:21 10° N
Okean 1 Rocket 3.0 18:26:17 10° S 18:30:46 82° E 18:35:16 10° N
Cosmos 1833 Rocket 2.9 18:26:13 10° NNW 18:31:46 53° ENE 18:36:36 13° SE
Nadezhda 4 Rocket 4.2 18:26:40 10° NNW 18:32:47 74° W 18:38:54 10° S
Cosmos 2251 Rocket 4.4 18:28:30 10° N 18:33:11 29° ENE 18:35:38 21° ESE
CSL-04 Debris 4.1 18:30:22 10° SSE 18:35:45 83° ENE 18:41:11 10° NNW
Cosmos 1340 Rocket 2.9 18:31:56 10° S 18:35:48 53° E 18:39:44 10° NNE
COSMOS 2406 3.1 18:32:29 10° NNW 18:38:11 79° ENE 18:43:52 10° SSE
YAOGAN 1 3.2 18:36:18 10° S 18:40:33 59° W 18:44:51 10° NNW
Lacrosse 4 Rocket 1.7 18:39:41 10° NNW 18:43:38 45° NE 18:45:15 29° ESE
Cosmos 1674 3.8 18:41:19 10° NNW 18:45:00 45° W 18:48:38 10° SSW
Lacrosse 5 rocket 2.6 18:41:15 10° NW 18:45:15 32° NNE 18:46:58 24° ENE
CZ-4C R/B 2.2 18:42:55 10° S 18:47:31 46° ESE 18:52:56 10° NE
CZ-4 R/B 3.2 18:49:54 10° SSW 18:53:43 34° W 18:57:29 10° NNW
Shenzhou-11 Module 3.2 18:53:19 10° W 18:54:23 23° WSW 18:54:23 23° WSW
ARGOS 3.1 18:52:20 10° SSE 18:57:42 81° ENE 19:03:07 10° NNW
Cosmos 1892 Rocket 3.5 18:55:10 10° N 18:59:29 61° E 19:01:33 29° SSE
APEX 2.8 18:58:37 10° SSW 19:01:46 65° ESE 19:03:27 29° NE
Meteor 1-24 Rocket 3.8 18:56:31 10° N 19:02:15 87° W 19:08:09 10° S
MOS 1 Rocket 3.2 18:58:49 10° N 19:03:07 75° WNW 19:07:23 10° SSW
CZ-2C R/B 2.9 18:57:46 10° NNE 19:03:15 50° E 19:08:40 10° S
USA 186 2.2 19:04:01 47° NE 19:04:01 47° NE 19:06:41 10° N
Cosmos 1626 2.5 19:01:36 10° NNW 19:05:16 64° W 19:08:28 13° S
MOS 1 4.5 19:03:08 30° SE 19:05:44 51° ENE 19:11:16 10° N
Meteor 1-22 Rocket 4.5 19:00:04 10° SSW 19:06:03 81° W 19:12:12 10° N
Aureole 2 Rocket 4.3 19:04:46 10° SW 19:07:42 29° WNW 19:10:37 10° N
Cosmos 1470 2.6 19:08:02 58° ESE 19:08:19 60° E 19:12:09 10° NNE
Ariane Rocket 3.0 19:06:14 33° SE 19:08:23 59° ENE 19:13:24 10° N
Resurs 01 Rocket 3.5 19:10:02 16° NE 19:10:02 16° NE 19:11:35 10° NNE
SL-14 R/B 3.6 19:07:23 10° NNW 19:11:22 66° W 19:14:31 16° S
SL-8 R/B 3.6 19:11:02 10° WSW 19:15:51 82° SSE 19:17:03 51° ENE
MetOp-A 4.1 19:16:54 42° SE 19:18:29 60° ENE 19:23:45 10° N
Cosmos 2098 Rocket 3.8 19:13:33 10° N 19:19:14 46° ENE 19:19:21 46° E
RESURS DK-1 3.1 19:18:50 10° SW 19:22:53 53° WNW 19:26:58 10° NNE
Milstar 3 Cent rocket 4.0 19:17:11 10° WSW 19:23:21 21° SSW 19:25:27 18° S
SL-08 RB Rocket 3.8 19:23:00 31° S 19:25:09 75° WSW 19:29:41 10° NNW
Cosmos 1634 Rocket 4.4 19:19:11 10° SSW 19:25:17 62° W 19:31:28 10° N
ATLAS 3B R/B 3.0 19:20:31 10° NW 19:27:21 65° WSW 19:31:52 24° SSE
Meteor 2-10 3.9 19:35:05 51° SSE 19:36:24 72° E 19:41:41 10° NNE
ATLAS 2AS CENTAUR R/B 4.2 19:29:35 10° WSW 19:36:59 40° NW 19:44:18 10° NNE
Cosmos 1461 3.7 19:32:38 10° NNW 19:36:42 47° NNE 19:36:42 47° NNE
Cosmos 2082 Rocket 2.1 19:32:23 10° NNW 19:38:03 82° WSW 19:39:28 52° SSE
H-2A R/B 3.9 19:41:28 10° SSW 19:45:47 28° W 19:50:14 10° NW
COSMOS 2455 3.1 19:40:44 10° SW 19:46:43 67° WNW 19:52:46 10° NNE
Cosmos 1455 Rocket 3.8 19:42:40 10° SSW 19:46:56 51° WNW 19:51:12 10° N
SJ-6B 3.9 19:50:50 41° NW 19:50:50 41° NW 19:53:40 10° NNW
OBJECT-B 3.8 19:55:53 12° NNW 19:55:53 12° NNW 19:56:09 10° NNW
Cosmos 2279 Rocket 4.4 19:47:50 10° SSW 19:53:59 61° W 20:00:13 10° N
ISS -1.2 19:52:49 10° NW 19:54:07 22° NW 19:54:07 22° NW
Meteor 1-21 Rocket 4.2 19:52:28 10° N 19:58:18 84° ENE 19:58:18 84° ENE
DMSP B5D2-2 4.4 19:55:07 10° N 20:00:21 63° WNW 20:05:16 11° SSW
Cosmos 1655 Rocket 4.0 19:56:38 10° N 20:02:58 78° W 20:04:14 59° SSW
Cosmos 2278 Rocket 4.1 20:01:44 10° WSW 20:06:34 29° NW 20:11:27 10° N
Cosmos 909 Rocket 4.2 20:04:04 10° NW 20:10:20 64° WSW 20:10:58 61° SSW
Lacrosse 4 Rocket 3.9 20:19:14 10° WNW 20:21:36 17° W 20:21:36 17° W
Lacrosse 5 rocket 3.4 20:20:15 10° NW 20:22:36 29° WNW 20:22:36 29° WNW
CZ-4C R/B 3.7 20:31:35 10° WSW 20:36:12 33° NW 20:41:39 10° NNE
Resurs 01 Rocket 4.1 20:47:36 18° NNW 20:47:36 18° NNW 20:48:54 10° NNW
